CW5217 Weather Reports


Display with metric or nautical units.
time (UTC)temp
F
wind
direction
speed
MPH
gust
MPH
rain 1hr
in
rain 24hr
in
rain mn
in
humidity
%
barometer
mb
20260506182848 58 126 0.0 3.0 0.12 0.32 0.32 99 1008.1
20260506182345 58 108 1.0 3.0 0.05 0.31 0.31 99 1008.2
20260506181842 58 162 1.0 2.0 0.07 0.30 0.30 99 1008.2
20260506181340 58 111 1.0 4.0 0.12 0.30 0.30 99 1008.4
20260506180837 58 173 1.0 3.0 0.05 0.29 0.29 99 1008.1
20260506180333 58 92 0.0 0.0 0.00 0.28 0.28 99 1008.3
20260506175829 58 110 0.0 2.0 0.00 0.28 0.28 99 1008.3
20260506175326 58 239 3.0 4.0 0.07 0.28 0.28 99 1008.3
20260506174823 58 177 1.0 2.0 0.07 0.28 0.28 99 1008.4
20260506174321 58 93 0.0 4.0 0.05 0.27 0.27 99 1008.4
20260506173818 58 95 0.0 3.0 0.05 0.27 0.27 99 1008.5
20260506173315 58 73 1.0 4.0 0.00 0.26 0.26 99 1008.4
20260506172812 58 109 0.0 1.0 0.00 0.26 0.26 99 1008.5
20260506172308 58 163 4.0 4.0 0.00 0.26 0.26 99 1008.5
20260506171806 58 113 2.0 2.0 0.00 0.26 0.26 99 1008.4
20260506171303 58 115 1.0 1.0 0.00 0.26 0.26 99 1008.4
20260506170800 58 110 1.0 2.0 0.00 0.26 0.26 99 1008.5
20260506170256 58 122 0.0 1.0 0.00 0.26 0.26 99 1008.7
20260506165755 58 116 1.0 7.0 0.00 0.26 0.26 99 1008.5
20260506165252 58 88 0.0 2.0 0.07 0.26 0.26 99 1008.6
20260506164749 58 95 0.0 2.0 0.07 0.26 0.26 99 1008.5
20260506164246 58 72 1.0 3.0 0.00 0.25 0.25 99 1008.4
20260506163743 58 104 0.0 3.0 0.05 0.25 0.25 99 1008.5
20260506163237 58 119 0.0 2.0 0.07 0.24 0.24 99 1008.5
20260506162734 59 103 0.0 0.0 0.07 0.24 0.24 99 1008.5
20260506162232 59 104 0.0 1.0 0.07 0.23 0.23 99 1008.5
20260506161729 59 100 0.0 0.0 0.12 0.23 0.23 99 1008.4
20260506161226 59 114 0.0 7.0 0.24 0.22 0.22 99 1008.8
20260506160724 59 92 0.0 1.0 0.24 0.21 0.21 99 1009.0
20260506160220 59 110 0.0 1.0 0.17 0.18 0.18 99 1009.4
20260506155719 59 103 1.0 2.0 0.19 0.17 0.17 99 1009.6
20260506155215 59 107 0.0 2.0 0.12 0.15 0.15 99 1009.5
20260506153317 59 104 0.0 2.0 0.12 0.09 0.09 98 1009.8
20260506152814 59 103 0.0 1.0 0.07 0.08 0.08 98 1009.8
20260506152311 59 99 0.0 1.0 0.05 0.07 0.07 98 1009.8
20260506151810 60 99 0.0 0.0 0.12 0.07 0.07 97 1009.5
20260506151306 60 89 0.0 0.0 0.12 0.06 0.06 97 1009.5
20260506150803 60 84 0.0 0.0 0.05 0.05 0.05 97 1009.4
20260506150304 60 102 0.0 0.0 0.07 0.04 0.04 96 1009.6
20260506145757 60 97 0.0 1.0 0.12 0.04 0.04 95 1009.5
20260506145253 60 104 1.0 1.0 0.12 0.03 0.03 94 1009.5
20260506144751 60 99 0.0 3.0 0.12 0.02 0.02 92 1009.6
20260506144248 61 95 0.0 1.0 0.05 0.01 0.01 91 1009.7
20260506143745 62 33 1.0 2.0 0.00 0.00 0.00 88 1009.9
20260506143242 62 103 1.0 2.0 0.00 0.00 0.00 88 1009.8
20260506142741 62 77 1.0 1.0 0.00 0.00 0.00 87 1009.8
20260506142239 62 100 0.0 1.0 0.00 0.00 0.00 85 1009.8
20260506141736 62 84 0.0 1.0 0.00 0.00 0.00 86 1009.7
20260506141235 62 83 0.0 1.0 0.00 0.00 0.00 87 1009.7
20260506140732 62 112 1.0 1.0 0.00 0.00 0.00 86 1009.6
20260506140229 62 4 0.0 2.0 0.00 0.00 0.00 87 1009.4
20260506135725 62 117 1.0 1.0 0.00 0.00 0.00 85 1009.4
20260506135222 62 97 1.0 1.0 0.00 0.00 0.00 85 1009.7
20260506134719 62 105 1.0 1.0 0.00 0.00 0.00 85 1009.6
20260506134215 62 137 1.0 4.0 0.00 0.00 0.00 85 1009.5
20260506133712 62 110 1.0 1.0 0.00 0.00 0.00 85 1009.6
20260506133208 62 109 2.0 3.0 0.00 0.00 0.00 84 1009.7
20260506132706 62 95 1.0 1.0 0.00 0.00 0.00 84 1009.8
20260506132203 62 165 2.0 2.0 0.00 0.00 0.00 83 1009.6
20260506131701 62 259 4.0 7.0 0.00 0.00 0.00 83 1009.8
20260506131156 62 129 0.0 1.0 0.00 0.00 0.00 83 1009.9
20260506130653 62 121 3.0 3.0 0.00 0.00 0.00 83 1010.0
20260506130151 62 141 1.0 2.0 0.00 0.00 0.00 83 1009.9
20260506125649 63 110 2.0 2.0 0.00 0.00 0.00 83 1009.8
20260506125146 62 76 1.0 2.0 0.00 0.00 0.00 83 1009.8
20260506124644 62 99 0.0 1.0 0.00 0.00 0.00 83 1009.8
20260506124142 62 95 1.0 2.0 0.00 0.00 0.00 83 1009.9
20260506123639 62 150 1.0 1.0 0.00 0.00 0.00 83 1009.6
20260506123138 62 141 2.0 4.0 0.00 0.00 0.00 83 1009.6
20260506122634 62 112 0.0 2.0 0.00 0.00 0.00 84 1009.5
20260506122132 62 162 2.0 2.0 0.00 0.00 0.00 83 1009.5
20260506121629 62 72 3.0 8.0 0.00 0.00 0.00 83 1009.7
20260506121125 62 89 2.0 2.0 0.00 0.00 0.00 84 1009.6
20260506120624 62 95 1.0 3.0 0.00 0.00 0.00 83 1009.6
20260506120121 62 141 1.0 2.0 0.00 0.00 0.00 84 1009.8
20260506115619 62 216 1.0 4.0 0.00 0.00 0.00 84 1009.7
20260506115117 62 104 0.0 1.0 0.00 0.00 0.00 85 1009.6
20260506114614 62 108 0.0 1.0 0.00 0.00 0.00 84 1009.7
20260506114112 62 76 1.0 2.0 0.00 0.00 0.00 85 1009.8
20260506113610 62 109 1.0 2.0 0.00 0.00 0.00 85 1009.9
20260506113107 62 4 2.0 3.0 0.00 0.00 0.00 84 1009.8
20260506112603 62 113 0.0 1.0 0.00 0.00 0.00 85 1009.8
20260506112101 62 103 0.0 0.0 0.00 0.00 0.00 85 1009.9
20260506111558 62 102 1.0 2.0 0.00 0.00 0.00 85 1009.7
20260506111055 62 97 0.0 1.0 0.00 0.00 0.00 85 1009.5
20260506110553 62 114 0.0 0.0 0.00 0.00 0.00 85 1009.6
20260506110050 62 111 0.0 7.0 0.00 0.00 0.00 85 1009.7
20260506105546 62 98 0.0 0.0 0.00 0.00 0.00 85 1009.6
20260506105044 61 137 0.0 3.0 0.00 0.00 0.00 85 1009.5
20260506104542 61 103 0.0 0.0 0.00 0.00 0.00 86 1009.3
20260506104039 61 107 0.0 2.0 0.00 0.00 0.00 85 1009.4
20260506103536 61 100 1.0 3.0 0.00 0.00 0.00 86 1009.3
20260506103033 61 84 1.0 2.0 0.00 0.00 0.00 86 1009.4
20260506102531 61 117 0.0 0.0 0.00 0.00 0.00 85 1009.2
20260506102028 61 90 0.0 1.0 0.00 0.00 0.00 85 1009.3
20260506101525 61 104 0.0 2.0 0.00 0.00 0.00 85 1009.2
20260506101022 61 104 0.0 2.0 0.00 0.00 0.00 86 1009.4
20260506100520 61 89 0.0 2.0 0.00 0.00 0.00 86 1009.4
20260506100018 61 100 1.0 3.0 0.00 0.00 0.00 86 1009.5
20260506095517 61 100 1.0 1.0 0.00 0.00 0.00 85 1009.4
20260506095012 61 104 0.0 2.0 0.00 0.00 0.00 85 1009.2
20260506094510 61 112 0.0 0.0 0.00 0.00 0.00 85 1009.3
20260506094008 61 117 0.0 0.0 0.00 0.00 0.00 85 1009.3
20260506093506 61 91 0.0 0.0 0.00 0.00 0.00 85 1009.5
20260506093004 61 94 0.0 0.0 0.00 0.00 0.00 84 1009.4
20260506092501 61 105 0.0 0.0 0.00 0.00 0.00 84 1009.3
20260506091957 61 101 1.0 1.0 0.00 0.00 0.00 84 1009.3
20260506091456 62 142 0.0 2.0 0.00 0.00 0.00 83 1009.3
20260506090953 62 119 1.0 2.0 0.00 0.00 0.00 83 1009.3
20260506090451 62 98 1.0 3.0 0.00 0.00 0.00 82 1009.5
20260506085946 62 99 0.0 1.0 0.00 0.00 0.00 82 1009.6
20260506085444 62 105 0.0 0.0 0.00 0.00 0.00 81 1009.6
20260506084940 62 117 2.0 2.0 0.00 0.00 0.00 80 1009.3
20260506084437 62 90 1.0 1.0 0.00 0.00 0.00 80 1009.6
20260506083933 62 104 1.0 2.0 0.00 0.00 0.00 80 1009.6
20260506083430 62 114 0.0 1.0 0.00 0.00 0.00 80 1009.4
20260506082928 62 111 0.0 0.0 0.00 0.00 0.00 80 1009.5
20260506082425 62 74 2.0 3.0 0.00 0.00 0.00 79 1009.5
20260506081920 62 83 2.0 2.0 0.00 0.00 0.00 79 1009.7
20260506081419 62 73 1.0 2.0 0.00 0.00 0.00 79 1009.6
20260506080915 62 112 0.0 0.0 0.00 0.00 0.00 78 1009.7
20260506080412 62 108 1.0 6.0 0.00 0.00 0.00 77 1009.6
20260506073356 63 76 1.0 3.0 0.00 0.00 0.00 75 1009.6
20260506072853 63 94 0.0 0.0 0.00 0.00 0.00 75 1009.8
20260506072351 63 98 0.0 0.0 0.00 0.00 0.00 74 1009.9
20260506071848 63 60 1.0 2.0 0.00 0.00 0.00 74 1009.8
20260506071346 64 120 0.0 1.0 0.00 0.00 0.00 73 1009.9
20260506070843 64 124 0.0 0.0 0.00 0.00 0.00 73 1009.8
20260506070340 64 109 1.0 2.0 0.00 0.00 0.00 72 1009.9
20260506062317 64 74 3.0 6.0 0.00 0.00 0.00 70 1010.3
20260506061813 64 113 1.0 1.0 0.00 0.00 0.00 70 1010.4
20260506061310 64 89 0.0 1.0 0.00 0.00 0.00 70 1010.3
20260506060808 65 128 0.0 1.0 0.00 0.00 0.00 70 1010.3
20260506060306 65 98 0.0 1.0 0.00 0.00 0.00 69 1010.2
20260506051237 64 137 1.0 2.0 0.00 0.00 0.00 70 1010.5
20260506050735 64 111 1.0 1.0 0.00 0.00 0.00 70 1010.8
20260506050232 64 139 1.0 2.0 0.00 0.00 0.00 69 1010.8
20260506044723 64 107 0.0 0.0 0.00 0.00 0.00 69 1010.8
20260506044220 64 89 1.0 2.0 0.00 0.00 0.00 69 1010.9
20260506043718 64 135 1.0 2.0 0.00 0.00 0.00 69 1010.8
20260506043215 64 101 1.0 1.0 0.00 0.00 0.00 69 1010.9
20260506042714 65 102 0.0 0.0 0.00 0.00 0.00 69 1010.9
20260506042212 65 72 0.0 1.0 0.00 0.00 0.00 68 1011.0
20260506041710 65 113 1.0 1.0 0.00 0.00 0.00 68 1010.8
20260506041207 65 97 0.0 0.0 0.00 0.00 0.00 67 1010.9
20260506040704 65 97 0.0 1.0 0.00 0.00 0.00 67 1010.9
20260506040201 65 96 0.0 0.0 0.00 0.00 0.00 67 1010.9
20260506035658 65 96 0.0 1.0 0.00 0.00 0.00 66 1010.9
20260506035155 66 90 1.0 2.0 0.00 0.00 0.00 65 1011.0
20260506034651 66 114 1.0 2.0 0.00 0.00 0.00 64 1010.9
20260506034149 66 97 2.0 2.0 0.00 0.00 0.00 64 1011.0
20260506033646 66 120 2.0 2.0 0.00 0.00 0.00 63 1010.9
20260506033143 66 117 2.0 3.0 0.00 0.00 0.00 62 1010.8
20260506032640 66 88 1.0 1.0 0.00 0.00 0.00 61 1010.8
20260506032137 66 116 1.0 1.0 0.00 0.00 0.00 60 1010.7
20260506031634 67 94 0.0 0.0 0.00 0.00 0.00 59 1010.8
20260506031130 67 94 0.0 0.0 0.00 0.00 0.00 59 1010.8
20260506030629 67 104 0.0 0.0 0.00 0.00 0.00 58 1010.8
20260506030126 68 102 0.0 0.0 0.00 0.00 0.00 57 1010.7
20260506025623 68 124 2.0 2.0 0.00 0.00 0.00 57 1010.6
20260506025119 68 124 2.0 2.0 0.00 0.00 0.00 57 1010.7
20260506024617 68 97 0.0 0.0 0.00 0.00 0.00 56 1010.7
20260506024112 68 92 0.0 0.0 0.00 0.00 0.00 55 1011.0
20260506023609 68 108 1.0 1.0 0.00 0.00 0.00 55 1010.9
20260506023106 69 58 1.0 2.0 0.00 0.00 0.00 54 1010.9
20260506022604 69 94 0.0 0.0 0.00 0.00 0.00 55 1010.7
20260506022101 69 85 2.0 2.0 0.00 0.00 0.00 55 1010.8
20260506021559 69 79 1.0 1.0 0.00 0.00 0.00 54 1010.6
20260506021055 69 133 1.0 2.0 0.00 0.00 0.00 54 1010.6
20260506020553 69 53 2.0 3.0 0.00 0.00 0.00 52 1010.5
20260506020050 69 104 0.0 0.0 0.00 0.00 0.00 53 1010.7
20260506015548 69 133 0.0 0.0 0.00 0.00 0.00 53 1010.5
20260506015044 70 97 0.0 1.0 0.00 0.00 0.00 53 1010.7
20260506014542 69 110 2.0 3.0 0.00 0.00 0.00 53 1010.7
20260506014037 70 93 0.0 0.0 0.00 0.00 0.00 52 1010.5
20260506013536 70 90 0.0 0.0 0.00 0.00 0.00 53 1010.5
20260506013032 70 93 0.0 1.0 0.00 0.00 0.00 53 1010.4
20260506012528 70 107 0.0 0.0 0.00 0.00 0.00 54 1010.4
20260506012025 70 97 0.0 0.0 0.00 0.00 0.00 53 1010.1
20260506011523 70 142 3.0 3.0 0.00 0.00 0.00 52 1010.2
20260506011019 70 93 0.0 1.0 0.00 0.00 0.00 52 1010.1
20260506010519 70 94 0.0 0.0 0.00 0.00 0.00 51 1010.1
20260506010015 71 99 0.0 0.0 0.00 0.00 0.00 50 1010.1
20260506005512 70 102 0.0 0.0 0.00 0.00 0.00 50 1010.1
20260506005007 71 96 0.0 0.0 0.00 0.00 0.00 49 1009.9
20260506004505 71 96 0.0 0.0 0.00 0.00 0.00 49 1009.9
20260506004001 71 96 0.0 0.0 0.00 0.00 0.00 49 1009.7
20260506003458 71 96 0.0 1.0 0.00 0.00 0.00 47 1009.8
20260506002954 71 95 0.0 1.0 0.00 0.00 0.00 47 1009.7
20260506002451 71 101 0.0 2.0 0.00 0.00 0.00 47 1009.6
20260506001946 72 99 0.0 0.0 0.00 0.00 0.00 45 1009.6
20260506001443 72 90 0.0 0.0 0.00 0.00 0.00 45 1009.5
20260506000940 73 100 0.0 0.0 0.00 0.00 0.00 44 1009.6
20260506000438 73 106 0.0 7.0 0.00 0.00 0.00 43 1009.7
20260505235935 72 85 0.0 4.0 0.00 0.00 0.00 43 1009.6
20260505235433 72 114 1.0 2.0 0.00 0.00 0.00 43 1009.5
20260505234929 73 101 0.0 0.0 0.00 0.00 0.00 44 1009.5
20260505234427 73 155 0.0 1.0 0.00 0.00 0.00 42 1009.5
20260505233923 73 95 0.0 2.0 0.00 0.00 0.00 42 1009.5
20260505233421 74 89 0.0 0.0 0.00 0.00 0.00 41 1009.4
20260505232918 74 105 1.0 2.0 0.00 0.00 0.00 41 1009.4
20260505232416 74 161 1.0 6.0 0.00 0.00 0.00 40 1009.4
20260505231913 75 104 0.0 8.0 0.00 0.00 0.00 41 1009.3
20260505231410 75 220 2.0 6.0 0.00 0.00 0.00 39 1009.3
20260505230908 75 86 2.0 3.0 0.00 0.00 0.00 40 1009.1
20260505230406 75 43 2.0 7.0 0.00 0.00 0.00 40 1009.3
20260505225902 76 28 4.0 4.0 0.00 0.00 0.00 39 1009.1
20260505225359 76 247 7.0 9.0 0.00 0.00 0.00 38 1009.3
20260505224854 76 194 2.0 6.0 0.00 0.00 0.00 40 1009.1
20260505224352 76 98 1.0 9.0 0.00 0.00 0.00 40 1009.0
20260505223849 76 282 5.0 10.0 0.00 0.00 0.00 38 1009.0
20260505223346 76 114 1.0 3.0 0.00 0.00 0.00 42 1009.0
20260505222842 76 186 5.0 6.0 0.00 0.00 0.00 39 1008.7
20260505222338 76 319 4.0 7.0 0.00 0.00 0.00 41 1008.7
20260505221835 76 125 0.0 2.0 0.00 0.00 0.00 40 1008.8
20260505221332 76 119 3.0 4.0 0.00 0.00 0.00 40 1008.8
20260505220829 76 94 1.0 3.0 0.00 0.00 0.00 40 1008.9
20260505220326 77 133 2.0 4.0 0.00 0.00 0.00 40 1009.0
20260505215824 77 100 2.0 6.0 0.00 0.00 0.00 41 1008.9
20260505215322 77 203 3.0 9.0 0.00 0.00 0.00 38 1009.0
20260505214820 77 107 1.0 6.0 0.00 0.00 0.00 40 1008.9
20260505214317 77 141 1.0 9.0 0.00 0.00 0.00 38 1009.1
20260505213813 77 108 2.0 7.0 0.00 0.00 0.00 40 1008.8
20260505213312 77 323 3.0 4.0 0.00 0.00 0.00 37 1008.9
20260505212807 77 82 3.0 6.0 0.00 0.00 0.00 38 1008.8
20260505212306 77 256 2.0 8.0 0.00 0.00 0.00 38 1008.7
20260505211800 77 319 2.0 4.0 0.00 0.00 0.00 37 1008.7
20260505211259 77 129 0.0 3.0 0.00 0.00 0.00 38 1008.8
20260505210754 77 72 2.0 4.0 0.00 0.00 0.00 38 1008.7
20260505210252 78 194 1.0 6.0 0.00 0.00 0.00 37 1008.5
20260505205749 77 221 4.0 6.0 0.00 0.00 0.00 37 1008.6
20260505205247 77 59 0.0 3.0 0.00 0.00 0.00 40 1008.6
20260505204743 77 114 0.0 7.0 0.00 0.00 0.00 38 1008.3
20260505204241 78 84 2.0 3.0 0.00 0.00 0.00 37 1008.4
20260505203738 79 221 0.0 14.0 0.00 0.00 0.00 35 1008.5
20260505203235 79 330 6.0 9.0 0.00 0.00 0.00 34 1008.4
20260505202731 80 153 3.0 8.0 0.00 0.00 0.00 35 1008.6
20260505202227 79 105 3.0 4.0 0.00 0.00 0.00 34 1008.6
20260505201724 79 25 2.0 9.0 0.00 0.00 0.00 33 1008.5
20260505201222 79 205 4.0 8.0 0.00 0.00 0.00 34 1008.7
20260505200719 80 145 1.0 2.0 0.00 0.00 0.00 33 1008.7
20260505200216 80 99 1.0 6.0 0.00 0.00 0.00 33 1008.6
20260505195712 80 234 1.0 6.0 0.00 0.00 0.00 32 1008.8
20260505195209 81 180 3.0 7.0 0.00 0.00 0.00 32 1008.7
20260505194707 82 229 2.0 3.0 0.00 0.00 0.00 32 1008.6
20260505194203 81 167 2.0 7.0 0.00 0.00 0.00 31 1008.5
20260505193659 81 230 3.0 4.0 0.00 0.00 0.00 32 1008.6
20260505193156 81 141 2.0 4.0 0.00 0.00 0.00 30 1008.6
20260505192655 81 83 2.0 6.0 0.00 0.00 0.00 31 1008.8
20260505192152 81 290 4.0 7.0 0.00 0.00 0.00 31 1008.6
20260505191650 81 212 2.0 2.0 0.00 0.00 0.00 32 1008.6
20260505191148 81 140 1.0 8.0 0.00 0.00 0.00 33 1008.7
20260505190644 81 116 3.0 3.0 0.00 0.00 0.00 33 1008.9
20260505190144 82 309 3.0 6.0 0.00 0.00 0.00 32 1008.7
20260505185641 81 127 4.0 6.0 0.00 0.00 0.00 31 1009.1
20260505185137 81 83 1.0 3.0 0.00 0.00 0.00 32 1008.8
20260505184634 83 120 4.0 11.0 0.00 0.00 0.00 33 1009.0
20260505184131 82 134 2.0 4.0 0.00 0.00 0.00 32 1009.1
20260505183627 82 264 2.0 7.0 0.00 0.00 0.00 33 1009.1
20260505183125 79 96 2.0 8.0 0.00 0.00 0.00 37 1009.3